Tracking 20710 objects as of 30-May-2020
HD Live streaming from Space Station
objects crossing your sky now

SL-18 DEB

Track SL-18 DEB now!
10-day predictions


NORAD ID: 28950
Int'l Code: 1993-014AB
Perigee: 571.4 km
Apogee: 671.1 km
Inclination: 75.7 °
Period: 97.0 minutes
Semi major axis: 6992 km
RCS: 0.0115 m2 (small)
Launch date: March 25, 1993
Source: Commonwealth of Independent States (former USSR) (CIS)
Launch site: PLESETSK MISSILE AND SPACE COMPLEX (PKMTR)

Note: This is SATELLITE DEBRIS
aabbcc
Your satellite tracking list
Your tracking list is empty




NASA's NSSDC Master Catalog

Two Line Element Set (TLE):
1 28950U 93014AB  20150.81769519  .00002870  00000-0  32521-3 0  9998
2 28950  75.7372 169.8794 0071282 202.6319 332.4122 14.84825209826347
Source of the keplerian elements: AFSPC